Regional Weather Roundup
Issued by NWS Raleigh/Durham, NC

Home | Current Version | Previous Version | Text Only | Print | Product List | Glossary On
Versions: 1 2 3 4 5 6 7 8 9 10 11 12 13 14 15 16 17 18 19 20 21 22 23 24 25 26 27
000
ASUS42 KRAH 310010
RWRRAH
NORTH CAROLINA WEATHER ROUNDUP
NATIONAL WEATHER SERVICE RALEIGH NC
800 PM EDT MON MAY 30 2016

NOTE: "FAIR" INDICATES FEW OR NO CLOUDS BELOW 12,000 FEET WITH NO
SIGNIFICANT WEATHER AND/OR OBSTRUCTIONS TO VISIBILITY.

NCZ001-053-055-056-065-067-310100-
WESTERN NORTH CAROLINA

CITY           SKY/WX    TMP DP  RH WIND       PRES   REMARKS
ASHEVILLE      CLEAR     78  53  41 N12G23    30.01R
JEFFERSON      CLOUDY    69  60  72 CALM      30.07S
MORGANTON      CLOUDY    79  62  56 N10G18    30.02R
HICKORY        PTCLDY    78  63  59 NE6       29.95R
RUTHERFORDTON  PTCLDY    81  64  55 CALM      29.95R
MOUNT AIRY     CLOUDY    78  64  61 CALM      29.99R
BOONE          CLOUDY    64  62  94 CALM      30.09S
$$

NCZ021-022-025-041-071-084-088-310100-
CENTRAL NORTH CAROLINA

CITY           SKY/WX    TMP DP  RH WIND       PRES   REMARKS
CHARLOTTE      PTCLDY    82  63  52 NE9       29.93R
GREENSBORO     MOCLDY    79  64  60 E7        29.95R
WINSTON-SALEM  CLOUDY    80  64  58 E3        29.96R
RALEIGH-DURHAM CLOUDY    74  71  91 NE6       29.94S
FORT BRAGG     CLOUDY    71  70  96 NE2       29.93R
FAYETTEVILLE   CLOUDY    73  70  90 N6        29.92S
BURLINGTON     CLOUDY    76  67  73 E7        29.95R
LAURINBURG     CLOUDY    75  70  84 E8        29.92R
$$

NCZ011-015-027-028-043-044-047-080-103-310100-
NORTHEASTERN NORTH CAROLINA

CITY           SKY/WX    TMP DP  RH WIND       PRES   REMARKS
ROCKY MT-WILSO CLOUDY    75  69  81 NE3       29.96R
GREENVILLE     CLOUDY    73  72  94 E5        29.97R
WASHINGTON     MOCLDY    73  71  93 E5        29.95R
ELIZABETH CITY LGT RAIN  72  70  93 SE5       29.98R
MANTEO         NOT AVBL
CAPE HATTERAS  CLOUDY    74  71  91 SE8       29.95S
$$

NCZ078-087-090-091-093-098-101-310100-
SOUTHEASTERN NORTH CAROLINA

CITY           SKY/WX    TMP DP  RH WIND       PRES   REMARKS
LUMBERTON      CLOUDY    77  69  76 NE7       29.91R
GOLDSBORO      NOT AVBL
KINSTON        CLOUDY    75  70  83 E6        29.95R
KENANSVILLE    CLOUDY    73  73  98 CALM      29.94S
NEW BERN       PTCLDY    76  70  82 E6        29.95R
CHERRY POINT   MOCLDY    76  72  87 NE6       29.95R
BEAUFORT       PTCLDY    76  71  85 SE6       29.94R
JACKSONVILLE   PTCLDY    77  71  82 SE6       29.92R
WILMINGTON     CLOUDY    74  72  93 E3        29.91S
$$





USA.gov is the U.S. government's official web portal to all federal, state and local government web resources and services.